Location: Gro�bocka
(50.8204°N, 11.9702°E)
Time: 07:11:28
(UTC+00:00)

USA 306 - Pass Details

Date: 29 October 2020
Orbit: 569 x 576 km, 54.0° (Epoch: 30 November)

Event Time Altitude Azimuth Distance (km) Brightness Sun altitude
Rises 17:55:30 0° 293° (WNW) 2,793 7.7 -20.0°
Reaches altitude 10° 17:57:51 10° 286° (WNW) 1,890 6.7 -20.4°
Maximum altitude 18:01:52 40° 217° (SW) 861 4.0 -21.0°
Enters shadow 18:03:36 27° 168° (SSE) 1,122 4.2 -21.3°
